| time (UTC) | temp C | wind direction | speed KPH | gust KPH | rain 1hr cm | rain 24hr cm | rain mn cm | humidity % | barometer mb |
| 20260506225342 | 13 | 270 | 8.0 | 9.7 | 0.00 | 1.19 | 1.19 | 50 | 1003.5 |
| 20260506224839 | 13 | 270 | 9.7 | 9.7 | 0.00 | 1.19 | 1.19 | 51 | 1003.5 |
| 20260506224336 | 13 | 264 | 11.3 | 11.3 | 0.00 | 1.19 | 1.19 | 50 | 1003.8 |
| 20260506223832 | 13 | 282 | 6.4 | 6.4 | 0.00 | 1.19 | 1.19 | 50 | 1003.5 |
| 20260506223327 | 13 | 258 | 4.8 | 6.4 | 0.00 | 1.19 | 1.19 | 51 | 1003.8 |
| 20260506222825 | 13 | 252 | 8.0 | 9.7 | 0.00 | 1.19 | 1.19 | 51 | 1003.5 |
| 20260506222320 | 13 | 272 | 9.7 | 9.7 | 0.00 | 1.19 | 1.19 | 51 | 1003.8 |
| 20260506221819 | 13 | 252 | 14.5 | 16.1 | 0.00 | 1.19 | 1.19 | 50 | 1003.5 |
| 20260506221316 | 13 | 252 | 8.0 | 9.7 | 0.00 | 1.19 | 1.19 | 50 | 1003.5 |
| 20260506220813 | 13 | 250 | 12.9 | 12.9 | 0.00 | 1.19 | 1.19 | 50 | 1003.2 |
| 20260506220308 | 13 | 266 | 3.2 | 3.2 | 0.00 | 1.19 | 1.19 | 51 | 1002.8 |
| 20260506215805 | 13 | 264 | 6.4 | 8.0 | 0.00 | 1.19 | 1.19 | 51 | 1002.8 |
| 20260506215301 | 13 | 246 | 9.7 | 9.7 | 0.00 | 1.19 | 1.19 | 49 | 1002.8 |
| 20260506214756 | 13 | 266 | 8.0 | 8.0 | 0.00 | 1.19 | 1.19 | 50 | 1003.2 |
| 20260506214254 | 13 | 288 | 16.1 | 17.7 | 0.00 | 1.19 | 1.19 | 49 | 1002.8 |
| 20260506213752 | 13 | 253 | 12.9 | 12.9 | 0.00 | 1.19 | 1.19 | 51 | 1002.5 |
| 20260506213249 | 13 | 264 | 6.4 | 6.4 | 0.00 | 1.19 | 1.19 | 51 | 1002.5 |
| 20260506212746 | 13 | 264 | 6.4 | 8.0 | 0.00 | 1.19 | 1.19 | 50 | 1002.5 |
| 20260506212242 | 13 | 265 | 8.0 | 9.7 | 0.00 | 1.19 | 1.19 | 51 | 1002.5 |
| 20260506211737 | 14 | 259 | 8.0 | 8.0 | 0.00 | 1.19 | 1.19 | 51 | 1002.5 |
| 20260506211233 | 14 | 253 | 11.3 | 11.3 | 0.00 | 1.19 | 1.19 | 51 | 1002.5 |
| 20260506210731 | 14 | 252 | 12.9 | 14.5 | 0.00 | 1.19 | 1.19 | 50 | 1002.5 |
| 20260506210222 | 14 | 264 | 14.5 | 16.1 | 0.00 | 1.19 | 1.19 | 51 | 1002.5 |
| 20260506205719 | 14 | 260 | 6.4 | 6.4 | 0.00 | 1.19 | 1.19 | 51 | 1002.5 |
| 20260506205214 | 14 | 247 | 8.0 | 9.7 | 0.00 | 1.19 | 1.19 | 51 | 1002.1 |
| 20260506204712 | 14 | 270 | 14.5 | 16.1 | 0.00 | 1.19 | 1.19 | 50 | 1002.1 |
| 20260506204209 | 15 | 267 | 11.3 | 11.3 | 0.00 | 1.19 | 1.19 | 49 | 1002.5 |
| 20260506203707 | 15 | 264 | 12.9 | 12.9 | 0.00 | 1.19 | 1.19 | 49 | 1002.5 |
| 20260506203204 | 15 | 265 | 11.3 | 11.3 | 0.00 | 1.19 | 1.19 | 49 | 1002.1 |
| 20260506202702 | 15 | 243 | 8.0 | 9.7 | 0.00 | 1.19 | 1.19 | 47 | 1001.8 |
| 20260506202157 | 15 | 276 | 6.4 | 6.4 | 0.00 | 1.19 | 1.19 | 47 | 1002.1 |
| 20260506201655 | 15 | 260 | 9.7 | 11.3 | 0.00 | 1.19 | 1.19 | 46 | 1002.1 |
| 20260506201151 | 15 | 258 | 6.4 | 8.0 | 0.00 | 1.19 | 1.19 | 48 | 1002.1 |
| 20260506200648 | 15 | 252 | 12.9 | 14.5 | 0.00 | 1.19 | 1.19 | 47 | 1002.1 |
| 20260506200144 | 15 | 261 | 14.5 | 16.1 | 0.00 | 1.19 | 1.19 | 46 | 1002.1 |
| 20260506195641 | 15 | 257 | 14.5 | 17.7 | 0.00 | 1.19 | 1.19 | 46 | 1002.1 |
| 20260506195137 | 16 | 248 | 4.8 | 4.8 | 0.00 | 1.19 | 1.19 | 47 | 1002.1 |
| 20260506194635 | 15 | 264 | 9.7 | 9.7 | 0.00 | 1.19 | 1.19 | 48 | 1002.1 |
| 20260506194131 | 16 | 255 | 12.9 | 12.9 | 0.00 | 1.19 | 1.19 | 48 | 1002.1 |
| 20260506193629 | 15 | 236 | 8.0 | 9.7 | 0.00 | 1.19 | 1.19 | 48 | 1002.1 |
| 20260506193126 | 15 | 276 | 8.0 | 8.0 | 0.00 | 1.19 | 1.19 | 49 | 1001.8 |
| 20260506192623 | 15 | 270 | 6.4 | 6.4 | 0.00 | 1.19 | 1.19 | 50 | 1001.5 |
| 20260506192119 | 15 | 264 | 3.2 | 3.2 | 0.00 | 1.19 | 1.19 | 49 | 1001.8 |
| 20260506191616 | 15 | 258 | 9.7 | 9.7 | 0.00 | 1.19 | 1.19 | 49 | 1002.1 |
| 20260506191111 | 15 | 252 | 6.4 | 8.0 | 0.00 | 1.19 | 1.19 | 48 | 1002.1 |
| 20260506190609 | 15 | 254 | 4.8 | 4.8 | 0.00 | 1.19 | 1.19 | 49 | 1002.5 |
| 20260506190106 | 15 | 270 | 9.7 | 9.7 | 0.00 | 1.19 | 1.19 | 50 | 1002.5 |
| 20260506185603 | 15 | 265 | 6.4 | 8.0 | 0.00 | 1.19 | 1.19 | 50 | 1001.8 |
| 20260506185059 | 15 | 92 | 9.7 | 9.7 | 0.00 | 1.19 | 1.19 | 50 | 1002.1 |
| 20260506184557 | 15 | 92 | 9.7 | 9.7 | 0.00 | 1.19 | 1.19 | 50 | 1002.1 |
| 20260506184054 | 15 | 258 | 9.7 | 9.7 | 0.00 | 1.19 | 1.19 | 49 | 1002.5 |
| 20260506183550 | 15 | 270 | 11.3 | 11.3 | 0.00 | 1.19 | 1.19 | 49 | 1002.5 |
| 20260506183046 | 15 | 265 | 6.4 | 6.4 | 0.00 | 1.19 | 1.19 | 50 | 1002.5 |
| 20260506182544 | 15 | 264 | 9.7 | 9.7 | 0.00 | 1.19 | 1.19 | 48 | 1002.5 |
| 20260506182041 | 15 | 234 | 3.2 | 3.2 | 0.00 | 1.19 | 1.19 | 51 | 1002.5 |
| 20260506181539 | 15 | 244 | 6.4 | 8.0 | 0.00 | 1.19 | 1.19 | 46 | 1002.5 |
| 20260506181035 | 15 | 258 | 9.7 | 9.7 | 0.00 | 1.19 | 1.19 | 46 | 1002.5 |
| 20260506180532 | 15 | 264 | 11.3 | 11.3 | 0.00 | 1.19 | 1.19 | 48 | 1002.5 |
| 20260506180029 | 15 | 255 | 6.4 | 6.4 | 0.00 | 1.19 | 1.19 | 48 | 1002.5 |
| 20260506175525 | 14 | 264 | 6.4 | 8.0 | 0.00 | 1.19 | 1.19 | 46 | 1002.8 |
| 20260506175022 | 14 | 261 | 6.4 | 6.4 | 0.00 | 1.19 | 1.19 | 46 | 1002.5 |
| 20260506174521 | 14 | 254 | 9.7 | 9.7 | 0.00 | 1.19 | 1.19 | 47 | 1002.5 |
| 20260506174016 | 14 | 209 | 8.0 | 9.7 | 0.00 | 1.19 | 1.19 | 46 | 1002.5 |
| 20260506173514 | 14 | 258 | 14.5 | 17.7 | 0.00 | 1.19 | 1.19 | 44 | 1002.5 |
| 20260506173011 | 14 | 254 | 8.0 | 8.0 | 0.00 | 1.19 | 1.19 | 47 | 1002.8 |
| 20260506172508 | 13 | 260 | 3.2 | 3.2 | 0.00 | 1.19 | 1.19 | 49 | 1002.5 |
| 20260506172004 | 14 | 270 | 9.7 | 9.7 | 0.00 | 1.19 | 1.19 | 55 | 1002.5 |
| 20260506171501 | 13 | 258 | 11.3 | 11.3 | 0.00 | 1.19 | 1.19 | 51 | 1002.1 |
| 20260506170959 | 13 | 264 | 11.3 | 12.9 | 0.00 | 1.19 | 1.19 | 52 | 1002.1 |
| 20260506170455 | 13 | 270 | 12.9 | 12.9 | 0.00 | 1.19 | 1.19 | 51 | 1002.1 |
| 20260506165948 | 13 | 249 | 14.5 | 16.1 | 0.00 | 1.19 | 1.19 | 52 | 1002.1 |
| 20260506165446 | 13 | 246 | 9.7 | 11.3 | 0.00 | 1.19 | 1.19 | 55 | 1002.5 |
| 20260506164937 | 13 | 270 | 4.8 | 6.4 | 0.00 | 1.19 | 1.19 | 54 | 1002.5 |
| 20260506164433 | 13 | 252 | 11.3 | 11.3 | 0.00 | 1.19 | 1.19 | 57 | 1002.8 |
| 20260506163931 | 13 | 267 | 8.0 | 8.0 | 0.00 | 1.19 | 1.19 | 59 | 1002.8 |
| 20260506163426 | 12 | 248 | 11.3 | 11.3 | 0.00 | 1.19 | 1.19 | 60 | 1002.5 |
| 20260506162921 | 13 | 254 | 9.7 | 9.7 | 0.00 | 1.19 | 1.19 | 62 | 1002.5 |
| 20260506162418 | 13 | 264 | 4.8 | 4.8 | 0.00 | 1.19 | 1.19 | 60 | 1002.5 |
| 20260506161910 | 12 | 102 | 8.0 | 9.7 | 0.00 | 1.19 | 1.19 | 62 | 1002.1 |
| 20260506161408 | 12 | 255 | 14.5 | 17.7 | 0.00 | 1.19 | 1.19 | 60 | 1002.5 |
| 20260506160905 | 12 | 252 | 9.7 | 9.7 | 0.00 | 1.19 | 1.19 | 65 | 1002.5 |
| 20260506160401 | 12 | 254 | 6.4 | 6.4 | 0.00 | 1.19 | 1.19 | 67 | 1002.5 |
| 20260506155900 | 12 | 254 | 9.7 | 9.7 | 0.00 | 1.19 | 1.19 | 68 | 1002.5 |
| 20260506155357 | 12 | 255 | 4.8 | 4.8 | 0.00 | 1.19 | 1.19 | 69 | 1002.1 |
| 20260506153514 | 11 | 265 | 11.3 | 11.3 | 0.00 | 1.19 | 1.19 | 70 | 1002.1 |
| 20260506153011 | 11 | 258 | 8.0 | 8.0 | 0.00 | 1.19 | 1.19 | 70 | 1001.8 |
| 20260506152508 | 11 | 258 | 6.4 | 8.0 | 0.00 | 1.19 | 1.19 | 73 | 1001.8 |
| 20260506152006 | 11 | 265 | 4.8 | 4.8 | 0.00 | 1.19 | 1.19 | 73 | 1002.1 |
| 20260506151504 | 11 | 246 | 9.7 | 11.3 | 0.00 | 1.19 | 1.19 | 74 | 1001.8 |
| 20260506151001 | 10 | 246 | 6.4 | 6.4 | 0.00 | 1.19 | 1.19 | 76 | 1002.1 |
| 20260506150456 | 10 | 264 | 9.7 | 9.7 | 0.00 | 1.19 | 1.19 | 77 | 1001.8 |
| 20260506145954 | 10 | 258 | 9.7 | 9.7 | 0.00 | 1.19 | 1.19 | 76 | 1001.8 |
| 20260506145450 | 10 | 271 | 3.2 | 3.2 | 0.00 | 1.19 | 1.19 | 78 | 1001.8 |
| 20260506144948 | 10 | 265 | 11.3 | 11.3 | 0.00 | 1.19 | 1.19 | 81 | 1001.8 |
| 20260506144444 | 10 | 264 | 12.9 | 14.5 | 0.00 | 1.19 | 1.19 | 81 | 1001.8 |
| 20260506143943 | 10 | 258 | 9.7 | 9.7 | 0.00 | 1.19 | 1.19 | 83 | 1001.8 |
| 20260506143439 | 10 | 288 | 6.4 | 8.0 | 0.00 | 1.19 | 1.19 | 83 | 1001.5 |
| 20260506142938 | 10 | 240 | 8.0 | 9.7 | 0.00 | 1.19 | 1.19 | 82 | 1001.5 |
| 20260506142435 | 10 | 266 | 9.7 | 11.3 | 0.00 | 1.19 | 1.19 | 84 | 1001.1 |
| 20260506141933 | 10 | 258 | 9.7 | 11.3 | 0.00 | 1.19 | 1.19 | 85 | 1001.5 |
| 20260506141431 | 10 | 265 | 8.0 | 9.7 | 0.00 | 1.19 | 1.19 | 87 | 1001.1 |
| 20260506140929 | 10 | 265 | 6.4 | 6.4 | 0.00 | 1.19 | 1.19 | 87 | 1001.1 |
| 20260506140426 | 10 | 264 | 8.0 | 9.7 | 0.00 | 1.19 | 1.19 | 89 | 1000.8 |
| 20260506135922 | 10 | 264 | 6.4 | 8.0 | 0.00 | 1.19 | 1.19 | 88 | 1000.8 |
| 20260506135420 | 10 | 276 | 6.4 | 6.4 | 0.00 | 1.19 | 1.19 | 86 | 1000.8 |
| 20260506134916 | 10 | 260 | 6.4 | 8.0 | 0.00 | 1.19 | 1.19 | 88 | 1000.5 |
| 20260506134412 | 10 | 260 | 3.2 | 3.2 | 0.00 | 1.19 | 1.19 | 88 | 1000.5 |
| 20260506133909 | 10 | 312 | 4.8 | 4.8 | 0.00 | 1.19 | 1.19 | 89 | 1000.5 |
| 20260506133406 | 10 | 259 | 4.8 | 4.8 | 0.00 | 1.19 | 1.19 | 91 | 1000.5 |
| 20260506132903 | 10 | 270 | 8.0 | 8.0 | 0.00 | 1.19 | 1.19 | 90 | 1000.8 |
| 20260506132400 | 9 | 264 | 8.0 | 9.7 | 0.00 | 1.19 | 1.19 | 90 | 1000.5 |
| 20260506131858 | 9 | 258 | 8.0 | 9.7 | 0.00 | 1.19 | 1.19 | 91 | 1000.5 |
| 20260506131354 | 10 | 252 | 4.8 | 4.8 | 0.00 | 1.19 | 1.19 | 91 | 1000.8 |
| 20260506130851 | 9 | 108 | 0.0 | 0.0 | 0.00 | 1.19 | 1.19 | 92 | 1000.5 |
| 20260506130347 | 9 | 265 | 4.8 | 6.4 | 0.00 | 1.19 | 1.19 | 92 | 1000.5 |
| 20260506125845 | 9 | 259 | 3.2 | 3.2 | 0.00 | 1.19 | 1.19 | 92 | 1000.5 |
| 20260506125344 | 9 | 259 | 3.2 | 3.2 | 0.00 | 1.19 | 1.19 | 92 | 1000.5 |
| 20260506124842 | 9 | 264 | 4.8 | 6.4 | 0.00 | 1.19 | 1.19 | 92 | 1000.1 |
| 20260506124338 | 9 | 188 | 3.2 | 3.2 | 0.00 | 1.19 | 1.19 | 93 | 1000.1 |
| 20260506123836 | 9 | 264 | 1.6 | 1.6 | 0.00 | 1.19 | 1.19 | 94 | 999.8 |
| 20260506123334 | 9 | 264 | 3.2 | 3.2 | 0.00 | 1.19 | 1.19 | 95 | 999.8 |
| 20260506122831 | 8 | 270 | 8.0 | 9.7 | 0.00 | 1.19 | 1.19 | 95 | 999.8 |
| 20260506122327 | 8 | 264 | 1.6 | 1.6 | 0.00 | 1.19 | 1.19 | 96 | 999.8 |
| 20260506121826 | 8 | 266 | 3.2 | 3.2 | 0.00 | 1.19 | 1.19 | 96 | 999.8 |
| 20260506121323 | 8 | 266 | 0.0 | 0.0 | 0.00 | 1.19 | 1.19 | 97 | 999.8 |
| 20260506120820 | 8 | 266 | 3.2 | 3.2 | 0.00 | 1.19 | 1.19 | 97 | 999.8 |
| 20260506120318 | 8 | 266 | 0.0 | 0.0 | 0.00 | 1.19 | 1.19 | 97 | 999.8 |
| 20260506115815 | 8 | 264 | 0.0 | 0.0 | 0.03 | 1.19 | 1.19 | 97 | 999.8 |
| 20260506115313 | 8 | 264 | 0.0 | 0.0 | 0.03 | 1.19 | 1.19 | 97 | 999.8 |
| 20260506114811 | 8 | 264 | 0.0 | 0.0 | 0.03 | 1.19 | 1.19 | 97 | 999.8 |
| 20260506114308 | 8 | 267 | 6.4 | 6.4 | 0.03 | 1.19 | 1.19 | 97 | 999.3 |
| 20260506113807 | 8 | 101 | 0.0 | 0.0 | 0.03 | 1.19 | 1.19 | 97 | 999.3 |
| 20260506113304 | 8 | 234 | 0.0 | 0.0 | 0.03 | 1.19 | 1.19 | 97 | 999.0 |
| 20260506112800 | 8 | 180 | 0.0 | 0.0 | 0.03 | 1.19 | 1.19 | 97 | 999.0 |
| 20260506112258 | 8 | 174 | 3.2 | 3.2 | 0.03 | 1.19 | 1.19 | 97 | 999.0 |
| 20260506111755 | 8 | 102 | 4.8 | 4.8 | 0.03 | 1.19 | 1.19 | 97 | 999.0 |
| 20260506111253 | 8 | 264 | 0.0 | 0.0 | 0.03 | 1.19 | 1.19 | 97 | 998.0 |
| 20260506110750 | 8 | 270 | 8.0 | 9.7 | 0.00 | 1.14 | 1.14 | 97 | 998.0 |
| 20260506110247 | 8 | 108 | 3.2 | 3.2 | 0.00 | 1.14 | 1.14 | 96 | 998.0 |
| 20260506105744 | 8 | 258 | 0.0 | 0.0 | 0.00 | 1.14 | 1.14 | 96 | 998.7 |
| 20260506105240 | 8 | 270 | 4.8 | 6.4 | 0.00 | 1.14 | 1.14 | 96 | 998.3 |
| 20260506104738 | 8 | 192 | 0.0 | 0.0 | 0.00 | 1.14 | 1.14 | 95 | 998.3 |
| 20260506104236 | 8 | 183 | 0.0 | 0.0 | 0.00 | 1.14 | 1.14 | 95 | 998.3 |
| 20260506103733 | 8 | 183 | 0.0 | 0.0 | 0.00 | 1.14 | 1.14 | 95 | 998.7 |
| 20260506103230 | 8 | 183 | 0.0 | 0.0 | 0.00 | 1.14 | 1.14 | 95 | 998.3 |
| 20260506102728 | 8 | 183 | 0.0 | 0.0 | 0.00 | 1.14 | 1.14 | 95 | 998.0 |
| 20260506102225 | 8 | 186 | 0.0 | 0.0 | 0.00 | 1.14 | 1.14 | 95 | 998.0 |
| 20260506101722 | 8 | 186 | 1.6 | 1.6 | 0.00 | 1.14 | 1.14 | 95 | 998.0 |
| 20260506101219 | 8 | 186 | 1.6 | 1.6 | 0.00 | 1.14 | 1.14 | 95 | 997.3 |
| 20260506100717 | 8 | 252 | 0.0 | 0.0 | 0.00 | 1.14 | 1.14 | 94 | 997.3 |
| 20260506100215 | 8 | 101 | 3.2 | 3.2 | 0.00 | 1.14 | 1.14 | 95 | 997.0 |
| 20260506095713 | 8 | 142 | 0.0 | 0.0 | 0.03 | 1.14 | 1.14 | 95 | 997.3 |
| 20260506095209 | 8 | 240 | 6.4 | 6.4 | 0.03 | 1.14 | 1.14 | 96 | 997.3 |
| 20260506094706 | 8 | 252 | 0.0 | 0.0 | 0.03 | 1.14 | 1.14 | 96 | 997.3 |
| 20260506094204 | 8 | 258 | 4.8 | 4.8 | 0.03 | 1.14 | 1.14 | 96 | 997.6 |
| 20260506093703 | 8 | 264 | 8.0 | 9.7 | 0.03 | 1.14 | 1.14 | 96 | 997.6 |
| 20260506093159 | 8 | 258 | 0.0 | 0.0 | 0.00 | 1.12 | 1.12 | 96 | 997.3 |
| 20260506092657 | 8 | 264 | 4.8 | 4.8 | 0.00 | 1.12 | 1.12 | 96 | 997.3 |
| 20260506092154 | 8 | 252 | 6.4 | 6.4 | 0.00 | 1.12 | 1.12 | 96 | 997.6 |
| 20260506091652 | 8 | 258 | 8.0 | 8.0 | 0.00 | 1.12 | 1.12 | 96 | 997.3 |
| 20260506091149 | 8 | 265 | 4.8 | 4.8 | 0.00 | 1.12 | 1.12 | 96 | 997.6 |
| 20260506090647 | 8 | 252 | 4.8 | 4.8 | 0.00 | 1.12 | 1.12 | 96 | 997.0 |
| 20260506090144 | 8 | 252 | 11.3 | 11.3 | 0.00 | 1.12 | 1.12 | 96 | 996.6 |
| 20260506085640 | 8 | 252 | 12.9 | 12.9 | 0.23 | 1.07 | 1.07 | 97 | 997.3 |
| 20260506085136 | 9 | 258 | 6.4 | 6.4 | 0.18 | 1.02 | 1.02 | 97 | 997.3 |
| 20260506084633 | 9 | 264 | 8.0 | 9.7 | 0.18 | 1.02 | 1.02 | 97 | 997.3 |
| 20260506084130 | 9 | 258 | 3.2 | 3.2 | 0.15 | 0.99 | 0.99 | 97 | 997.3 |
| 20260506083627 | 9 | 264 | 8.0 | 9.7 | 0.15 | 0.99 | 0.99 | 96 | 997.6 |
| 20260506083125 | 9 | 254 | 3.2 | 3.2 | 0.15 | 0.99 | 0.99 | 96 | 997.3 |
| 20260506082621 | 9 | 264 | 6.4 | 6.4 | 0.10 | 0.94 | 0.94 | 96 | 997.0 |
| 20260506082117 | 9 | 264 | 3.2 | 3.2 | 0.08 | 0.91 | 0.91 | 97 | 997.0 |
| 20260506081615 | 9 | 271 | 3.2 | 3.2 | 0.03 | 0.86 | 0.86 | 97 | 997.3 |
| 20260506081113 | 9 | 240 | 8.0 | 8.0 | 0.03 | 0.86 | 0.86 | 97 | 997.3 |
| 20260506080610 | 9 | 270 | 8.0 | 8.0 | 0.00 | 0.84 | 0.84 | 97 | 997.0 |
| 20260506080107 | 9 | 252 | 4.8 | 4.8 | 0.15 | 0.84 | 0.84 | 97 | 997.0 |
| 20260506073050 | 10 | 252 | 4.8 | 4.8 | 0.10 | 0.79 | 0.79 | 97 | 996.3 |
| 20260506072547 | 10 | 258 | 0.0 | 0.0 | 0.10 | 0.79 | 0.79 | 97 | 996.3 |
| 20260506072045 | 10 | 264 | 6.4 | 6.4 | 0.08 | 0.74 | 0.74 | 97 | 996.6 |
| 20260506071543 | 10 | 258 | 4.8 | 6.4 | 0.08 | 0.74 | 0.74 | 97 | 996.3 |
| 20260506071040 | 10 | 267 | 0.0 | 0.0 | 0.03 | 0.71 | 0.71 | 98 | 996.3 |
| 20260506070537 | 10 | 258 | 9.7 | 9.7 | 0.00 | 0.66 | 0.66 | 98 | 996.3 |
| 20260506062514 | 11 | 260 | 8.0 | 9.7 | 0.18 | 0.43 | 0.43 | 98 | 996.3 |
| 20260506062011 | 11 | 270 | 4.8 | 4.8 | 0.15 | 0.38 | 0.38 | 98 | 996.3 |
| 20260506061506 | 11 | 264 | 3.2 | 3.2 | 0.10 | 0.36 | 0.36 | 98 | 996.3 |
| 20260506061005 | 11 | 267 | 3.2 | 3.2 | 0.08 | 0.30 | 0.30 | 98 | 996.3 |
| 20260506060503 | 11 | 276 | 4.8 | 4.8 | 0.00 | 0.23 | 0.23 | 98 | 996.3 |
| 20260506050932 | 14 | 258 | 0.0 | 0.0 | 0.00 | 0.00 | 0.00 | 98 | 997.0 |
| 20260506050430 | 14 | 258 | 0.0 | 0.0 | 0.00 | 0.00 | 0.00 | 98 | 996.6 |
| 20260506044920 | 14 | 258 | 0.0 | 0.0 | 0.00 | 0.00 | 0.00 | 98 | 997.0 |
| 20260506044418 | 14 | 258 | 0.0 | 0.0 | 0.00 | 0.00 | 0.00 | 98 | 997.0 |
| 20260506043915 | 14 | 258 | 0.0 | 0.0 | 0.00 | 0.00 | 0.00 | 98 | 997.3 |
| 20260506043412 | 14 | 258 | 0.0 | 0.0 | 0.00 | 0.00 | 0.00 | 98 | 997.0 |
| 20260506042910 | 15 | 258 | 0.0 | 0.0 | 0.00 | 0.00 | 0.00 | 98 | 997.0 |
| 20260506042409 | 15 | 258 | 0.0 | 0.0 | 0.00 | 0.00 | 0.00 | 98 | 997.0 |
| 20260506041907 | 15 | 258 | 0.0 | 0.0 | 0.00 | 0.00 | 0.00 | 98 | 997.0 |
| 20260506041404 | 15 | 258 | 0.0 | 0.0 | 0.00 | 0.00 | 0.00 | 98 | 997.0 |
| 20260506040901 | 15 | 258 | 0.0 | 0.0 | 0.00 | 0.00 | 0.00 | 98 | 997.0 |
| 20260506040358 | 15 | 258 | 0.0 | 0.0 | 0.00 | 0.00 | 0.00 | 98 | 997.3 |
| 20260506035854 | 15 | 258 | 0.0 | 0.0 | 0.28 | 1.14 | 1.14 | 98 | 997.6 |
| 20260506035352 | 15 | 258 | 0.0 | 0.0 | 0.28 | 1.14 | 1.14 | 98 | 997.6 |
| 20260506034849 | 15 | 258 | 0.0 | 0.0 | 0.28 | 1.14 | 1.14 | 98 | 997.6 |
| 20260506034346 | 15 | 258 | 0.0 | 0.0 | 0.28 | 1.14 | 1.14 | 98 | 998.0 |
| 20260506033843 | 15 | 264 | 0.0 | 0.0 | 0.23 | 1.12 | 1.12 | 98 | 998.0 |
| 20260506033340 | 15 | 264 | 0.0 | 0.0 | 0.23 | 1.12 | 1.12 | 98 | 998.0 |
| 20260506032837 | 15 | 264 | 0.0 | 0.0 | 0.18 | 1.07 | 1.07 | 98 | 998.0 |
| 20260506032333 | 15 | 264 | 0.0 | 0.0 | 0.15 | 1.02 | 1.02 | 98 | 998.0 |
| 20260506031831 | 15 | 264 | 0.0 | 0.0 | 0.10 | 0.99 | 0.99 | 98 | 998.3 |
| 20260506031328 | 15 | 258 | 0.0 | 0.0 | 0.08 | 0.94 | 0.94 | 98 | 998.3 |
| 20260506030826 | 15 | 258 | 0.0 | 0.0 | 0.08 | 0.94 | 0.94 | 97 | 998.0 |
| 20260506030323 | 15 | 258 | 0.0 | 0.0 | 0.03 | 0.91 | 0.91 | 97 | 998.0 |
| 20260506025820 | 15 | 258 | 0.0 | 0.0 | 0.28 | 0.86 | 0.86 | 97 | 998.3 |
| 20260506025316 | 15 | 258 | 0.0 | 0.0 | 0.28 | 0.86 | 0.86 | 97 | 998.0 |
| 20260506024814 | 15 | 258 | 0.0 | 0.0 | 0.28 | 0.86 | 0.86 | 97 | 998.0 |
| 20260506024310 | 15 | 258 | 0.0 | 0.0 | 0.23 | 0.84 | 0.84 | 97 | 998.3 |
| 20260506023806 | 15 | 258 | 0.0 | 0.0 | 0.23 | 0.84 | 0.84 | 97 | 998.3 |
| 20260506023304 | 15 | 258 | 0.0 | 0.0 | 0.18 | 0.79 | 0.79 | 97 | 998.0 |
| 20260506022800 | 15 | 258 | 0.0 | 0.0 | 0.18 | 0.79 | 0.79 | 97 | 998.0 |
| 20260506022258 | 15 | 258 | 0.0 | 0.0 | 0.15 | 0.74 | 0.74 | 97 | 998.3 |
| 20260506021755 | 15 | 258 | 1.6 | 1.6 | 0.10 | 0.71 | 0.71 | 97 | 998.3 |
| 20260506021252 | 15 | 228 | 0.0 | 0.0 | 0.03 | 0.64 | 0.64 | 97 | 998.0 |
| 20260506020749 | 15 | 222 | 0.0 | 0.0 | 0.03 | 0.64 | 0.64 | 97 | 998.0 |
| 20260506020247 | 15 | 222 | 0.0 | 0.0 | 0.00 | 0.58 | 0.58 | 97 | 998.0 |
| 20260506015744 | 15 | 222 | 0.0 | 0.0 | 0.18 | 0.56 | 0.56 | 97 | 998.0 |
| 20260506015242 | 15 | 222 | 0.0 | 0.0 | 0.18 | 0.56 | 0.56 | 97 | 998.0 |
| 20260506014738 | 15 | 222 | 0.0 | 0.0 | 0.15 | 0.51 | 0.51 | 97 | 998.3 |
| 20260506014235 | 15 | 222 | 0.0 | 0.0 | 0.10 | 0.46 | 0.46 | 97 | 998.0 |
| 20260506013732 | 15 | 222 | 0.0 | 0.0 | 0.08 | 0.43 | 0.43 | 97 | 998.0 |
| 20260506013229 | 15 | 222 | 0.0 | 0.0 | 0.03 | 0.38 | 0.38 | 97 | 998.0 |
| 20260506012725 | 15 | 222 | 0.0 | 0.0 | 0.03 | 0.38 | 0.38 | 97 | 998.0 |
| 20260506012223 | 15 | 222 | 0.0 | 0.0 | 0.03 | 0.38 | 0.38 | 97 | 997.6 |
| 20260506011720 | 15 | 222 | 0.0 | 0.0 | 0.00 | 0.36 | 0.36 | 96 | 997.6 |
| 20260506011216 | 15 | 222 | 0.0 | 0.0 | 0.00 | 0.36 | 0.36 | 96 | 997.6 |
| 20260506010715 | 15 | 222 | 0.0 | 0.0 | 0.00 | 0.36 | 0.36 | 96 | 997.6 |
| 20260506010212 | 15 | 222 | 0.0 | 0.0 | 0.00 | 0.36 | 0.36 | 96 | 997.6 |
| 20260506005709 | 15 | 222 | 0.0 | 0.0 | 0.03 | 0.36 | 0.36 | 96 | 998.0 |
| 20260506005205 | 15 | 222 | 0.0 | 0.0 | 0.03 | 0.36 | 0.36 | 96 | 997.6 |
| 20260506004701 | 15 | 222 | 0.0 | 0.0 | 0.03 | 0.36 | 0.36 | 96 | 998.0 |
| 20260506004159 | 15 | 222 | 0.0 | 0.0 | 0.00 | 0.30 | 0.30 | 96 | 998.0 |
| 20260506003654 | 15 | 222 | 0.0 | 0.0 | 0.00 | 0.30 | 0.30 | 96 | 997.6 |
| 20260506003151 | 15 | 222 | 0.0 | 0.0 | 0.00 | 0.30 | 0.30 | 96 | 998.0 |
| 20260506002647 | 15 | 222 | 0.0 | 0.0 | 0.00 | 0.30 | 0.30 | 96 | 997.6 |
| 20260506002143 | 15 | 222 | 0.0 | 0.0 | 0.00 | 0.30 | 0.30 | 96 | 998.0 |
| 20260506001639 | 15 | 222 | 0.0 | 0.0 | 0.00 | 0.30 | 0.30 | 96 | 998.0 |
| 20260506001137 | 15 | 297 | 0.0 | 0.0 | 0.00 | 0.30 | 0.30 | 96 | 998.0 |
| 20260506000634 | 15 | 297 | 0.0 | 0.0 | 0.00 | 0.30 | 0.30 | 96 | 998.0 |
| 20260506000131 | 15 | 297 | 0.0 | 0.0 | 0.00 | 0.30 | 0.30 | 96 | 998.0 |
| 20260505235629 | 15 | 297 | 0.0 | 0.0 | 0.00 | 0.30 | 0.30 | 96 | 998.0 |
| 20260505235126 | 15 | 297 | 0.0 | 0.0 | 0.00 | 0.30 | 0.30 | 96 | 998.0 |
| 20260505234623 | 16 | 297 | 0.0 | 0.0 | 0.00 | 0.30 | 0.30 | 96 | 997.6 |
| 20260505234120 | 16 | 297 | 0.0 | 0.0 | 0.00 | 0.30 | 0.30 | 96 | 998.0 |
| 20260505233617 | 16 | 297 | 0.0 | 0.0 | 0.00 | 0.30 | 0.30 | 96 | 998.0 |
| 20260505233115 | 16 | 297 | 0.0 | 0.0 | 0.00 | 0.30 | 0.30 | 96 | 998.3 |
| 20260505232612 | 16 | 297 | 0.0 | 0.0 | 0.00 | 0.30 | 0.30 | 96 | 998.0 |
| 20260505232109 | 16 | 297 | 0.0 | 0.0 | 0.00 | 0.30 | 0.30 | 95 | 998.3 |
| 20260505231606 | 16 | 297 | 0.0 | 0.0 | 0.00 | 0.30 | 0.30 | 95 | 998.0 |
| 20260505231105 | 16 | 297 | 0.0 | 0.0 | 0.00 | 0.30 | 0.30 | 95 | 998.0 |
| 20260505230602 | 16 | 297 | 0.0 | 0.0 | 0.00 | 0.30 | 0.30 | 95 | 998.3 |
| 20260505230058 | 16 | 297 | 3.2 | 3.2 | 0.00 | 0.30 | 0.30 | 95 | 998.0 |